# Tabular Observed and Forecast Hydrograph Information
#
# Location: Putah Creek - Guenoc (PCGC1)
#
# File Generation Time: 05/08/2026 at 09:32 AM PDT
# Data Interval: 1 Hour
#
# Most Recent Date & Time of Maximum Observed: 05/05/2026 at 03:00 PM PDT
# Maximum Observed Stage: 5.31 Feet
# Maximum Observed Flow: 71 cfs
#
# Earliest Date & Time of Maximum Forecast: 05/08/2026 at 09:00 AM PDT
# Maximum Forecast Stage: 5.23 Feet
# Maximum Forecast Flow: 60 cfs
#
# OBSERVED
#
# Date & Time (Local) Stage (Feet) Flow (cfs) Trend Observed Status
# ---------------------------------------------------------------------------------
05/03/2026 09 AM PDT 5.31 71 Normal
05/03/2026 10 AM PDT 5.31 71 0 Normal
05/03/2026 11 AM PDT 5.31 71 0 Normal
05/03/2026 12 PM PDT 5.31 71 0 Normal
05/03/2026 01 PM PDT 5.31 71 0 Normal
05/03/2026 02 PM PDT 5.31 71 0 Normal
05/03/2026 03 PM PDT 5.31 71 0 Normal
05/03/2026 04 PM PDT 5.31 71 0 Normal
05/03/2026 05 PM PDT 5.31 71 0 Normal
05/03/2026 06 PM PDT 5.31 71 0 Normal
05/03/2026 07 PM PDT 5.31 71 0 Normal
05/03/2026 08 PM PDT 5.31 71 0 Normal
05/03/2026 09 PM PDT 5.31 71 0 Normal
05/03/2026 10 PM PDT 5.30 70 - Normal
05/03/2026 11 PM PDT 5.30 70 0 Normal
05/04/2026 12 AM PDT 5.30 70 0 Normal
05/04/2026 01 AM PDT 5.30 70 0 Normal
05/04/2026 02 AM PDT 5.30 70 0 Normal
05/04/2026 03 AM PDT 5.29 68 - Normal
05/04/2026 04 AM PDT 5.29 68 0 Normal
05/04/2026 05 AM PDT 5.29 68 0 Normal
05/04/2026 06 AM PDT 5.30 70 + Normal
05/04/2026 07 AM PDT 5.30 70 0 Normal
05/04/2026 08 AM PDT 5.29 68 - Normal
05/04/2026 09 AM PDT 5.29 68 0 Normal
05/04/2026 10 AM PDT 5.29 68 0 Normal
05/04/2026 11 AM PDT 5.29 68 0 Normal
05/04/2026 12 PM PDT 5.29 68 0 Normal
05/04/2026 01 PM PDT 5.29 68 0 Normal
05/04/2026 02 PM PDT 5.30 70 + Normal
05/04/2026 03 PM PDT 5.31 71 + Normal
05/04/2026 04 PM PDT 5.31 71 0 Normal
05/04/2026 05 PM PDT 5.31 71 0 Normal
05/04/2026 06 PM PDT 5.30 70 - Normal
05/04/2026 07 PM PDT 5.31 71 + Normal
05/04/2026 08 PM PDT 5.30 70 - Normal
05/04/2026 09 PM PDT 5.30 70 0 Normal
05/04/2026 10 PM PDT 5.31 71 + Normal
05/04/2026 11 PM PDT 5.31 71 0 Normal
05/05/2026 12 AM PDT 5.31 71 0 Normal
05/05/2026 01 AM PDT 5.31 71 0 Normal
05/05/2026 02 AM PDT 5.31 71 0 Normal
05/05/2026 03 AM PDT 5.31 71 0 Normal
05/05/2026 04 AM PDT 5.31 71 0 Normal
05/05/2026 05 AM PDT 5.31 71 0 Normal
05/05/2026 06 AM PDT 5.31 71 0 Normal
05/05/2026 07 AM PDT 5.31 71 0 Normal
05/05/2026 08 AM PDT 5.31 71 0 Normal
05/05/2026 09 AM PDT 5.31 71 0 Normal
05/05/2026 10 AM PDT 5.31 71 0 Normal
05/05/2026 11 AM PDT 5.31 71 0 Normal
05/05/2026 12 PM PDT 5.31 71 0 Normal
05/05/2026 01 PM PDT 5.31 71 0 Normal
05/05/2026 02 PM PDT 5.31 71 0 Normal
05/05/2026 03 PM PDT 5.31 71 0 Normal
05/05/2026 04 PM PDT 5.30 70 - Normal
05/05/2026 05 PM PDT 5.30 70 0 Normal
05/05/2026 06 PM PDT 5.30 70 0 Normal
05/05/2026 07 PM PDT 5.30 70 0 Normal
05/05/2026 08 PM PDT 5.30 70 0 Normal
05/05/2026 09 PM PDT 5.29 68 - Normal
05/05/2026 10 PM PDT 5.29 68 0 Normal
05/05/2026 11 PM PDT 5.29 68 0 Normal
05/06/2026 12 AM PDT 5.29 68 0 Normal
05/06/2026 01 AM PDT 5.29 68 0 Normal
05/06/2026 02 AM PDT 5.28 67 - Normal
05/06/2026 03 AM PDT 5.28 67 0 Normal
05/06/2026 04 AM PDT 5.28 67 0 Normal
05/06/2026 05 AM PDT 5.28 67 0 Normal
05/06/2026 06 AM PDT 5.28 67 0 Normal
05/06/2026 07 AM PDT 5.28 67 0 Normal
05/06/2026 08 AM PDT 5.28 67 0 Normal
05/06/2026 09 AM PDT 5.28 67 0 Normal
05/06/2026 10 AM PDT 5.28 67 0 Normal
05/06/2026 11 AM PDT 5.28 67 0 Normal
05/06/2026 12 PM PDT 5.28 67 0 Normal
05/06/2026 01 PM PDT 5.28 67 0 Normal
05/06/2026 02 PM PDT 5.28 67 0 Normal
05/06/2026 03 PM PDT 5.28 67 0 Normal
05/06/2026 04 PM PDT 5.28 67 0 Normal
05/06/2026 05 PM PDT 5.28 67 0 Normal
05/06/2026 06 PM PDT 5.28 67 0 Normal
05/06/2026 07 PM PDT 5.27 65 - Normal
05/06/2026 08 PM PDT 5.27 65 0 Normal
05/06/2026 09 PM PDT 5.27 65 0 Normal
05/06/2026 10 PM PDT 5.27 65 0 Normal
05/06/2026 11 PM PDT 5.26 64 - Normal
05/07/2026 12 AM PDT 5.26 64 0 Normal
05/07/2026 01 AM PDT 5.26 64 0 Normal
05/07/2026 02 AM PDT 5.26 64 0 Normal
05/07/2026 03 AM PDT 5.25 63 - Normal
05/07/2026 04 AM PDT 5.25 63 0 Normal
05/07/2026 05 AM PDT 5.25 63 0 Normal
05/07/2026 06 AM PDT 5.25 63 0 Normal
05/07/2026 07 AM PDT 5.25 63 0 Normal
05/07/2026 08 AM PDT 5.25 63 0 Normal
05/07/2026 09 AM PDT 5.25 63 0 Normal
05/07/2026 10 AM PDT 5.25 63 0 Normal
05/07/2026 11 AM PDT 5.25 63 0 Normal
05/07/2026 12 PM PDT 5.25 63 0 Normal
05/07/2026 01 PM PDT 5.25 63 0 Normal
05/07/2026 02 PM PDT 5.25 63 0 Normal
05/07/2026 03 PM PDT 5.25 63 0 Normal
05/07/2026 04 PM PDT 5.25 63 0 Normal
05/07/2026 05 PM PDT 5.25 63 0 Normal
05/07/2026 06 PM PDT 5.25 63 0 Normal
05/07/2026 07 PM PDT 5.25 63 0 Normal
05/07/2026 08 PM PDT 5.25 63 0 Normal
05/07/2026 09 PM PDT 5.24 62 - Normal
05/07/2026 10 PM PDT 5.24 62 0 Normal
05/07/2026 11 PM PDT 5.24 62 0 Normal
05/08/2026 12 AM PDT 5.23 60 - Normal
05/08/2026 01 AM PDT 5.23 60 0 Normal
05/08/2026 02 AM PDT 5.23 60 0 Normal
05/08/2026 03 AM PDT 5.23 60 0 Normal
05/08/2026 04 AM PDT 5.23 60 0 Normal
05/08/2026 05 AM PDT 5.23 60 0 Normal
05/08/2026 06 AM PDT 5.23 60 0 Normal
05/08/2026 07 AM PDT 5.23 60 0 Normal
05/08/2026 08 AM PDT 5.23 60 0 Normal
#
# FORECAST
#
# Date & Time (Local) Stage (Feet) Flow (cfs) Trend Forecast Status
# ---------------------------------------------------------------------------------
05/08/2026 09 AM PDT 5.23 60 Normal
05/08/2026 10 AM PDT 5.23 60 0 Normal
05/08/2026 11 AM PDT 5.23 60 0 Normal
05/08/2026 12 PM PDT 5.23 60 0 Normal
05/08/2026 01 PM PDT 5.23 60 0 Normal
05/08/2026 02 PM PDT 5.23 60 0 Normal
05/08/2026 03 PM PDT 5.22 59 - Normal
05/08/2026 04 PM PDT 5.22 59 0 Normal
05/08/2026 05 PM PDT 5.22 59 0 Normal
05/08/2026 06 PM PDT 5.22 59 0 Normal
05/08/2026 07 PM PDT 5.22 59 0 Normal
05/08/2026 08 PM PDT 5.22 59 0 Normal
05/08/2026 09 PM PDT 5.22 59 0 Normal
05/08/2026 10 PM PDT 5.22 59 0 Normal
05/08/2026 11 PM PDT 5.22 59 0 Normal
05/09/2026 12 AM PDT 5.22 59 0 Normal
05/09/2026 01 AM PDT 5.22 59 0 Normal
05/09/2026 02 AM PDT 5.22 59 0 Normal
05/09/2026 03 AM PDT 5.22 59 0 Normal
05/09/2026 04 AM PDT 5.22 59 0 Normal
05/09/2026 05 AM PDT 5.22 59 0 Normal
05/09/2026 06 AM PDT 5.22 59 0 Normal
05/09/2026 07 AM PDT 5.22 59 0 Normal
05/09/2026 08 AM PDT 5.22 59 0 Normal
05/09/2026 09 AM PDT 5.22 59 0 Normal
05/09/2026 10 AM PDT 5.21 58 - Normal
05/09/2026 11 AM PDT 5.21 58 0 Normal
05/09/2026 12 PM PDT 5.21 58 0 Normal
05/09/2026 01 PM PDT 5.21 58 0 Normal
05/09/2026 02 PM PDT 5.21 58 0 Normal
05/09/2026 03 PM PDT 5.21 58 0 Normal
05/09/2026 04 PM PDT 5.21 58 0 Normal
05/09/2026 05 PM PDT 5.21 58 0 Normal
05/09/2026 06 PM PDT 5.21 58 0 Normal
05/09/2026 07 PM PDT 5.21 58 0 Normal
05/09/2026 08 PM PDT 5.21 58 0 Normal
05/09/2026 09 PM PDT 5.21 58 0 Normal
05/09/2026 10 PM PDT 5.21 58 0 Normal
05/09/2026 11 PM PDT 5.21 58 0 Normal
05/10/2026 12 AM PDT 5.21 58 0 Normal
05/10/2026 01 AM PDT 5.21 58 0 Normal
05/10/2026 02 AM PDT 5.21 58 0 Normal
05/10/2026 03 AM PDT 5.21 58 0 Normal
05/10/2026 04 AM PDT 5.21 58 0 Normal
05/10/2026 05 AM PDT 5.21 58 0 Normal
05/10/2026 06 AM PDT 5.21 58 0 Normal
05/10/2026 07 AM PDT 5.20 56 - Normal
05/10/2026 08 AM PDT 5.20 56 0 Normal
05/10/2026 09 AM PDT 5.20 56 0 Normal
05/10/2026 10 AM PDT 5.20 56 0 Normal
05/10/2026 11 AM PDT 5.20 56 0 Normal
05/10/2026 12 PM PDT 5.20 56 0 Normal
05/10/2026 01 PM PDT 5.20 56 0 Normal
05/10/2026 02 PM PDT 5.20 56 0 Normal
05/10/2026 03 PM PDT 5.20 56 0 Normal
05/10/2026 04 PM PDT 5.20 56 0 Normal
05/10/2026 05 PM PDT 5.20 56 0 Normal
05/10/2026 06 PM PDT 5.20 56 0 Normal
05/10/2026 07 PM PDT 5.20 56 0 Normal
05/10/2026 08 PM PDT 5.20 56 0 Normal
05/10/2026 09 PM PDT 5.20 56 0 Normal
05/10/2026 10 PM PDT 5.20 56 0 Normal
05/10/2026 11 PM PDT 5.20 56 0 Normal
05/11/2026 12 AM PDT 5.20 56 0 Normal
05/11/2026 01 AM PDT 5.20 56 0 Normal
05/11/2026 02 AM PDT 5.20 56 0 Normal
05/11/2026 03 AM PDT 5.19 55 - Normal
05/11/2026 04 AM PDT 5.19 55 0 Normal
05/11/2026 05 AM PDT 5.19 55 0 Normal
05/11/2026 06 AM PDT 5.19 55 0 Normal
05/11/2026 07 AM PDT 5.19 55 0 Normal
05/11/2026 08 AM PDT 5.19 55 0 Normal
05/11/2026 09 AM PDT 5.19 55 0 Normal
05/11/2026 10 AM PDT 5.19 55 0 Normal
05/11/2026 11 AM PDT 5.19 55 0 Normal
05/11/2026 12 PM PDT 5.19 55 0 Normal
05/11/2026 01 PM PDT 5.19 55 0 Normal
05/11/2026 02 PM PDT 5.19 55 0 Normal
05/11/2026 03 PM PDT 5.19 55 0 Normal
05/11/2026 04 PM PDT 5.19 55 0 Normal
05/11/2026 05 PM PDT 5.19 55 0 Normal
05/11/2026 06 PM PDT 5.19 55 0 Normal
05/11/2026 07 PM PDT 5.19 55 0 Normal
05/11/2026 08 PM PDT 5.19 55 0 Normal
05/11/2026 09 PM PDT 5.18 54 - Normal
05/11/2026 10 PM PDT 5.18 54 0 Normal
05/11/2026 11 PM PDT 5.18 54 0 Normal
05/12/2026 12 AM PDT 5.18 54 0 Normal
05/12/2026 01 AM PDT 5.18 54 0 Normal
05/12/2026 02 AM PDT 5.18 54 0 Normal
05/12/2026 03 AM PDT 5.18 54 0 Normal
05/12/2026 04 AM PDT 5.18 54 0 Normal
05/12/2026 05 AM PDT 5.18 54 0 Normal
05/12/2026 06 AM PDT 5.18 54 0 Normal
05/12/2026 07 AM PDT 5.18 54 0 Normal
05/12/2026 08 AM PDT 5.18 54 0 Normal
05/12/2026 09 AM PDT 5.18 54 0 Normal
05/12/2026 10 AM PDT 5.18 54 0 Normal
05/12/2026 11 AM PDT 5.18 54 0 Normal
05/12/2026 12 PM PDT 5.18 54 0 Normal
05/12/2026 01 PM PDT 5.18 54 0 Normal
05/12/2026 02 PM PDT 5.18 54 0 Normal
05/12/2026 03 PM PDT 5.18 54 0 Normal
05/12/2026 04 PM PDT 5.18 54 0 Normal
05/12/2026 05 PM PDT 5.18 54 0 Normal
05/12/2026 06 PM PDT 5.17 53 - Normal
05/12/2026 07 PM PDT 5.17 53 0 Normal
05/12/2026 08 PM PDT 5.17 53 0 Normal
05/12/2026 09 PM PDT 5.17 53 0 Normal
05/12/2026 10 PM PDT 5.17 53 0 Normal
05/12/2026 11 PM PDT 5.17 53 0 Normal
05/13/2026 12 AM PDT 5.17 53 0 Normal
05/13/2026 01 AM PDT 5.17 53 0 Normal
05/13/2026 02 AM PDT 5.17 53 0 Normal
05/13/2026 03 AM PDT 5.17 53 0 Normal
05/13/2026 04 AM PDT 5.17 53 0 Normal
05/13/2026 05 AM PDT 5.17 53 0 Normal
#
# NOTE 1: Stages are rounded to the nearest hundredth (.01) of a foot.
# NOTE 2: Flows are rounded to the nearest (1) cfs.
# NOTE 3: Trends are determined using hourly change in unrounded stage and flow.
# NOTE 4: Maximum Values are determined using unrounded stage and flow.
|